This is the latest recevied weather packets stored in our database for station/object K7FRY. If no packets are shown the sender has not sent any weather packets the latest 10 day(s).
| Time | Temp. | Humidity | Pressure | Rain* | Wind** | Luminosity | Snow |
|---|---|---|---|---|---|---|---|
| 1777079076 | 28.33° C | 18% | 1009.1 hPa | 0 mm | - | 40 W/m² | - |
| 1777078772 | 28.33° C | 18% | 1009.3 hPa | 0 mm | - | 63 W/m² | - |
| 1777078470 | 28.33° C | 18% | 1009.2 hPa | 0 mm | - | 58 W/m² | - |
| 1777078169 | 28.33° C | 18% | 1009.3 hPa | 0 mm | - | 79 W/m² | - |
| 1777077864 | 28.89° C | 17% | 1009.3 hPa | 0 mm | - | 81 W/m² | - |
| 1777077562 | 28.89° C | 16% | 1009.5 hPa | 0 mm | - | 109 W/m² | - |
| 1777077257 | 29.44° C | 16% | 1009.5 hPa | 0 mm | - | 118 W/m² | - |
| 1777076956 | 29.44° C | 16% | 1009.3 hPa | 0 mm | - | 161 W/m² | - |
| 1777076652 | 29.44° C | 15% | 1009.2 hPa | 0 mm | - | 168 W/m² | - |
| 1777076348 | 29.44° C | 15% | 1009.1 hPa | 0 mm | - | 210 W/m² | - |
| 1777076043 | 29.44° C | 15% | 1009.5 hPa | 0 mm | - | 220 W/m² | - |
| 1777075740 | 29.44° C | 15% | 1009.4 hPa | 0 mm | - | 259 W/m² | - |
| 1777075440 | 30° C | 15% | 1009.2 hPa | 0 mm | - | 255 W/m² | - |
| 1777075137 | 30° C | 15% | 1009.4 hPa | 0 mm | - | 264 W/m² | - |
| 1777074833 | 30° C | 15% | 1009.2 hPa | 0 mm | - | 313 W/m² | - |
| 1777074528 | 29.44° C | 15% | 1009.4 hPa | 0 mm | - | 311 W/m² | - |
| 1777074224 | 30° C | 15% | 1009.3 hPa | 0 mm | - | 333 W/m² | - |
| 1777073921 | 30° C | 15% | 1009.2 hPa | 0 mm | - | 345 W/m² | - |
| 1777073617 | 30° C | 15% | 1009.4 hPa | 0 mm | - | 346 W/m² | - |
| 1777073312 | 30.56° C | 15% | 1009.4 hPa | 0 mm | - | 377 W/m² | - |
| 1777073008 | 30° C | 14% | 1009.4 hPa | 0 mm | - | 380 W/m² | - |
| 1777072704 | 30° C | 14% | 1009.3 hPa | 0 mm | - | 391 W/m² | - |
| 1777072403 | 30° C | 14% | 1009.3 hPa | 0 mm | - | 418 W/m² | - |
| 1777072097 | 30° C | 14% | 1009.2 hPa | 0 mm | - | 450 W/m² | - |
| 1777071794 | 30° C | 14% | 1009.4 hPa | 0 mm | - | 465 W/m² | - |
* Rain latest hour (hover to see other rain measurements)
** Current wind speed in m/s (hover to see current wind gust speed)